Milford, UT

10:42 PM MST on December 11, 2017 (GMT -0700)
Milford Municipal

Weather History for KMLF - October, 2012

Change the Weather History Date:

Wednesday, October 17, 2012

  Actual Average Record
Temperature  
Mean Temperature 48 °F -  
Max Temperature 61 °F 64 °F 82 °F (2003)
Min Temperature 35 °F 30 °F 21 °F (1999)
Degree Days  
Heating Degree Days 17    
Moisture  
Dew Point 22 °F    
Average Humidity 36    
Maximum Humidity 63    
Minimum Humidity 7    
Precipitation  
Precipitation 0.00 in - - ()
Sea Level Pressure  
Sea Level Pressure 30.09 in    
Wind  
Wind Speed 10 mph (North)    
Max Wind Speed 15 mph    
Max Gust Speed 21 mph    
Visibility 10 miles    
Events      
Averages and records for this station are not official NWS values.
T = Trace of Precipitation, MM = Missing Value Source: NWS Daily Summary

Daily Weather History Graph

Daily Weather History Graph

Search for Another Location

Airport or City:

Trip Planner

Search our weather history database for the weather conditions in past years. The results will help you decide how hot, cold, wet, or windy it might be!

Date:

Astronomy

Oct. 17, 2012 Rise Set
Actual Time 7:43 AM MDT 6:50 PM MDT
Civil Twilight 7:16 AM MDT 7:17 PM MDT
Nautical Twilight 6:45 AM MDT 7:47 PM MDT
Astronomical Twilight 6:15 AM MDT 8:18 PM MDT
Moon 10:19 AM MDT (10/17) 8:32 PM MDT (10/17)
Length of Visible Light 12h 00m
Length of Day
11h 06m
Waxing Crescent, 7% of the Moon is Illuminated
Oct 17
Waxing Crescent
Oct 21
First Quarter
Oct 29
Full
Nov 6
Last Quarter
Nov 13
New

Hourly Weather History & Observations

Time (MDT) Temp. Windchill Dew Point Humidity Pressure Visibility Wind Dir Wind Speed Gust Speed Precip Events Conditions
12:52 AM 52.0 °F - 39.9 °F 63% 29.94 in 10.0 mi North 13.8 mph - N/A   Clear
1:52 AM 50.0 °F - 33.1 °F 52% 29.97 in 10.0 mi North 15.0 mph - N/A   Clear
2:52 AM 46.0 °F 41.4 °F 30.0 °F 54% 30.00 in 10.0 mi NW 9.2 mph - N/A   Partly Cloudy
3:52 AM 46.0 °F 40.2 °F 28.9 °F 51% 29.99 in 10.0 mi NW 12.7 mph - N/A   Clear
4:52 AM 45.0 °F 41.2 °F 28.0 °F 52% 30.00 in 10.0 mi NNW 6.9 mph - N/A   Clear
5:52 AM 42.1 °F 40.2 °F 27.0 °F 55% 30.04 in 10.0 mi NNW 3.5 mph - N/A   Clear
6:52 AM 39.0 °F 32.3 °F 26.1 °F 60% 30.07 in 10.0 mi NNW 10.4 mph - N/A   Clear
7:52 AM 41.0 °F 34.7 °F 23.0 °F 49% 30.09 in 10.0 mi NNW 10.4 mph - N/A   Clear
8:52 AM 42.1 °F 38.4 °F 27.0 °F 55% 30.11 in 10.0 mi NNE 5.8 mph - N/A   Clear
9:52 AM 48.9 °F - 24.1 °F 38% 30.12 in 10.0 mi North 10.4 mph - N/A   Clear
10:52 AM 52.0 °F - 21.0 °F 30% 30.12 in 10.0 mi North 15.0 mph - N/A   Clear
11:52 AM 55.0 °F - 21.9 °F 28% 30.11 in 10.0 mi North 15.0 mph - N/A   Clear
12:52 PM 57.0 °F - 18.0 °F 22% 30.11 in 10.0 mi North 11.5 mph 18.4 mph N/A   Clear
1:52 PM 59.0 °F - 17.1 °F 20% 30.10 in 10.0 mi NNE 13.8 mph - N/A   Clear
2:52 PM 60.1 °F - 15.1 °F 17% 30.09 in 10.0 mi NNE 10.4 mph 20.7 mph N/A   Clear
3:52 PM 61.0 °F - 14.0 °F 16% 30.09 in 10.0 mi NNE 13.8 mph - N/A   Clear
4:52 PM 61.0 °F - 12.9 °F 15% 30.09 in 10.0 mi North 11.5 mph - N/A   Clear
5:52 PM 59.0 °F - 12.9 °F 16% 30.10 in 10.0 mi NNE 12.7 mph - N/A   Clear
6:52 PM 53.1 °F - 15.1 °F 22% 30.14 in 10.0 mi North 8.1 mph - N/A   Clear
7:52 PM 44.1 °F 40.1 °F 19.0 °F 37% 30.17 in 10.0 mi NNW 6.9 mph - N/A   Clear
8:52 PM 43.0 °F 38.8 °F 19.0 °F 38% 30.19 in 10.0 mi NNW 6.9 mph - N/A   Clear
9:52 PM 43.0 °F 37.7 °F 19.9 °F 40% 30.18 in 10.0 mi NNW 9.2 mph - N/A   Clear
10:52 PM 39.0 °F 35.7 °F 21.0 °F 49% 30.18 in 10.0 mi SSE 4.6 mph - N/A   Clear
11:52 PM 37.0 °F - 21.9 °F 54% 30.19 in 10.0 mi Calm Calm - N/A   Clear